Weather in Vzmorye

Russia / Sakhalin District     47°51′03″N   142°30′55″E
temp.,
°C
wind,
m/s
gust,
m/s
humid.,
%
clouds,
%
prec.,
mm/h
press.,
hPa
HPBL,
m
27 january, thu
thu2723:00−13sw119793 0.1 101827
02:00−12ne1296100 0.1 1018118
05:00−13n129698 0.3 1018113
08:00−15nw1210087 0.1 101849
11:00−13n239158 0.1 1018234
14:00−11nne237843 0.0 1018541
17:00−11ne11777 0.0 1017323
20:00−16ssw119442 0.0 101822
28 january, fri
fri2823:00−16w119531 0.0 101824
02:00−18w119956 0.0 101723
05:00−18wsw1110048 0.0 101624
08:00−19sw1110058 0.0 101629
11:00−15se239352 0.0 1015197
14:00−13ese338991 0.0 1013396
17:00−14ese3489100 0.1 1012438
20:00−14ese3594100 0.4 1011479
29 january, sat
sat2923:00−14ese3695100 0.8 1009497
02:00−14e4695100 0.6 1007441
05:00−14e3595100 0.9 1006449
08:00−13ne2495100 0.8 1005446
11:00−14nne4492100 1.3 1006540
14:00−13ne3386100 0.3 1005696
17:00−13ne2391100 0.4 1005536
20:00−14wsw1194100 0.3 100589
30 january, sun
sun3023:00−16w229488 0.3 100542
02:00−16w2395100 0.1 100588
05:00−15wnw2494100 0.1 1005122
08:00−14nnw399070 0.1 1005540
11:00−12nnw498198 0.3 10061065
14:00−11nw61080100 0.2 10051417
17:00−12nw6108593 0.4 10051202
20:00−13nw91588100 0.3 10041081
31 january, mon
mon3123:00−14nnw61092100 1.8 1004769
02:00−15n4896100 0.4 1007450
05:00−15wnw3496100 0.6 1008127
08:00−11nw4128999 0.4 1008490
11:00−9nw4979100 0.4 1010394
14:00−8wnw61278100 0.0 1010789
17:00−9nw81579100 0.1 10101180
20:00−10nw10167659 0.1 10091090